This is the latest recevied weather packets stored in our database for station/object KJ7IVE-13. If no packets are shown the sender has not sent any weather packets the latest 1 day(s).
| Time | Temp. | Humidity | Pressure | Rain* | Wind** | Luminosity | Snow |
|---|---|---|---|---|---|---|---|
| 1778040128 | 13.33° C | 10% | 1011.7 hPa | 0 mm | - | 0 W/m² | - |
| 1778039218 | 13.89° C | 10% | 1011 hPa | 0 mm | - | 0 W/m² | - |
| 1778038916 | 13.89° C | 10% | 1010.8 hPa | 0 mm | - | 0 W/m² | - |
| 1778038613 | 13.33° C | 10% | 1010.9 hPa | 0 mm | - | 0 W/m² | - |
| 1778037400 | 14.44° C | 10% | 1010.8 hPa | 0 mm | - | 0 W/m² | - |
| 1778037097 | 14.44° C | 10% | 1010.9 hPa | 0 mm | - | 0 W/m² | - |
| 1778036796 | 14.44° C | 10% | 1010.6 hPa | 0 mm | - | 0 W/m² | - |
| 1778036493 | 14.44° C | 10% | 1010.7 hPa | 0 mm | - | 0 W/m² | - |
| 1778035885 | 15° C | 10% | 1010.3 hPa | 0 mm | - | 0 W/m² | - |
| 1778035583 | 15° C | 10% | 1010.1 hPa | 0 mm | - | 0 W/m² | - |
| 1778035279 | 15° C | 10% | 1010.3 hPa | 0 mm | - | 0 W/m² | - |
| 1778034976 | 15° C | 10% | 1010.1 hPa | 0 mm | - | 0 W/m² | - |
| 1778034673 | 15° C | 10% | 1010.2 hPa | 0 mm | - | 0 W/m² | - |
| 1778034068 | 15.56° C | 10% | 1010 hPa | 0 mm | - | 4 W/m² | - |
| 1778033462 | 15.56° C | 10% | 1010 hPa | 0 mm | - | 9 W/m² | - |
| 1778033159 | 16.11° C | 10% | 1009.9 hPa | 0 mm | - | 14 W/m² | - |
| 1778032857 | 16.11° C | 10% | 1010 hPa | 0 mm | - | 19 W/m² | - |
| 1778032554 | 16.11° C | 10% | 1009.7 hPa | 0 mm | - | 21 W/m² | - |
| 1778032251 | 16.11° C | 10% | 1009.9 hPa | 0 mm | - | 27 W/m² | - |
| 1778031644 | 16.67° C | 10% | 1009.8 hPa | 0 mm | - | 37 W/m² | - |
| 1778031039 | 16.67° C | 10% | 1009.5 hPa | 0 mm | - | 49 W/m² | - |
| 1778030735 | 16.67° C | 10% | 1009.8 hPa | 0 mm | - | 57 W/m² | - |
| 1778030432 | 16.67° C | 10% | 1009.4 hPa | 0 mm | - | 75 W/m² | - |
| 1778030130 | 16.67° C | 10% | 1009.7 hPa | 0 mm | - | 84 W/m² | - |
| 1778029826 | 16.67° C | 10% | 1009.5 hPa | 0 mm | - | 91 W/m² | - |
* Rain latest hour (hover to see other rain measurements)
** Current wind speed in m/s (hover to see current wind gust speed)